Coolangatta Observation History
Time Wind Speed Temp Pressure Rel. Hum Rain
08/03:30am SSE 3-4 kts 15.6°c 1013.3 hPa 97% n/a
08/03:07am SSE 5-6 kts 15.6°c 1013.5 hPa 97% n/a
08/03:00am SSE 5-6 kts 15.6°c 1013.4 hPa 97% 4.0mm
08/02:55am SSE 5-6 kts 15.6°c 1013.6 hPa 97% n/a
08/02:30am SSE 5 kts 15.5°c 1013.7 hPa 97% n/a
08/02:28am SSE 4-5 kts 15.5°c 1013.6 hPa 97% n/a
08/02:19am SSE 4-6 kts 15.7°c 1013.6 hPa 97% n/a
08/02:05am CALM 0 kts 15.8°c 1013.8 hPa 97% n/a
08/02:00am SSW 1-4 kts 15.7°c 1013.8 hPa 97% n/a
08/01:53am SSW 3-4 kts 15.8°c 1013.9 hPa 97% n/a
08/01:52am SSW 3-4 kts 15.7°c 1014.0 hPa 97% n/a
08/01:30am SSW 2-4 kts 15.7°c 1014.4 hPa 97% n/a
08/01:20am SSW 3-4 kts 15.7°c 1014.5 hPa 97% n/a
08/01:00am S 3-5 kts 15.6°c 1014.6 hPa 97% n/a
08/12:53am S 4-5 kts 15.5°c 1014.6 hPa 97% n/a
08/12:30am SW 5-6 kts 15.4°c 1014.8 hPa 97% n/a
08/12:09am S 1-5 kts 15.4°c 1015.0 hPa 97% n/a
08/12:00am SSE 3-4 kts 15.3°c 1015.0 hPa 97% n/a
Time Wind Speed Temp Pressure Rel. Hum Rain
07/11:57pm S 3-4 kts 15.3°c 1015.1 hPa 97% n/a
07/11:36pm SSW 1-4 kts 15.2°c 1015.5 hPa 96% n/a
07/11:30pm SSW 3-6 kts 15.2°c 1015.5 hPa 96% n/a
07/11:00pm SSW 4-5 kts 15.1°c 1015.5 hPa 97% n/a
07/10:55pm SSW 3-5 kts 15.1°c 1015.6 hPa 97% n/a
07/10:30pm S 2-5 kts 15.0°c 1015.9 hPa 97% n/a
07/10:00pm SSW 4-5 kts 15.0°c 1016.3 hPa 96% n/a
07/09:30pm SSW 5-6 kts 14.8°c 1016.5 hPa 96% n/a
07/09:00pm SSW 6-8 kts 14.8°c 1016.5 hPa 95% 9.0mm
07/08:50pm SSW 5-7 kts 14.8°c 1016.7 hPa 94% n/a
07/08:30pm S 4-6 kts 14.6°c 1016.8 hPa 94% n/a
07/08:00pm S 6-8 kts 14.5°c 1016.9 hPa 93% n/a
07/07:47pm S 7-9 kts 14.6°c 1016.7 hPa 93% n/a
07/07:30pm S 7-10 kts 14.7°c 1016.8 hPa 93% n/a
07/07:05pm S 7-10 kts 15.0°c 1017.1 hPa 94% n/a
07/07:00pm S 7-9 kts 15.1°c 1017.2 hPa 95% n/a
07/06:52pm SSW 6-8 kts 15.2°c 1017.5 hPa 94% n/a
07/06:30pm S 6-8 kts 15.5°c 1017.2 hPa 95% n/a
07/06:12pm S 6-8 kts 15.5°c 1017.0 hPa 96% n/a
07/06:00pm S 5-7 kts 15.6°c 1016.8 hPa 96% n/a
07/05:30pm SSW 5-7 kts 15.6°c 1016.8 hPa 95% n/a
07/05:16pm SW 5-7 kts 15.7°c 1016.8 hPa 95% n/a
07/05:11pm SW 4-5 kts 15.7°c 1016.8 hPa 95% n/a
07/05:00pm SW 4-6 kts 15.7°c 1016.3 hPa 94% n/a
07/04:52pm WSW 6-8 kts 15.8°c 1016.3 hPa 94% n/a
07/04:30pm WSW 6-8 kts 15.9°c 1015.7 hPa 93% n/a
07/04:29pm WSW 6-8 kts 15.9°c 1015.7 hPa 93% n/a
07/04:20pm W 5-7 kts 16.0°c 1015.5 hPa 93% n/a
07/04:17pm W 4-6 kts 15.9°c 1015.4 hPa 93% n/a
07/04:00pm NW 6-7 kts 15.9°c 1015.4 hPa 91% n/a
07/03:53pm NW 6-10 kts 15.9°c 1015.4 hPa 88% n/a
07/03:30pm N 10-14 kts 16.8°c 1014.4 hPa 78% n/a
07/03:22pm N 11-15 kts 16.7°c 1014.4 hPa 80% n/a
07/03:07pm NNE 19-29 kts 16.6°c 1015.1 hPa 85% n/a
07/03:00pm N 20-27 kts 16.6°c 1014.5 hPa 86% n/a
07/02:53pm NNE 19-27 kts 17.7°c 1013.7 hPa 89% n/a
07/02:48pm NE 15-27 kts 18.1°c 1013.8 hPa 85% n/a
07/02:30pm NE 12-16 kts 20.0°c 1014.3 hPa 71% n/a
07/02:00pm NE 11-14 kts 20.4°c 1014.6 hPa 70% n/a
07/01:30pm NE 13-17 kts 21.2°c 1014.1 hPa 61% n/a
07/09:30am NNE 5-10 kts 17.8°c 1019.0 hPa 88% 0.0mm
07/09:00am SSW 5-8 kts 16.3°c 1019.3 hPa 92% 3.4mm
07/08:53am SSE 5-7 kts 16.5°c 1019.0 hPa 92% 3.4mm
07/08:34am SSW 6-9 kts 16.5°c 1019.2 hPa 89% 2.2mm
07/08:30am SW 6-11 kts 16.3°c 1019.2 hPa 89% 1.4mm
07/08:00am WSW 4-6 kts 15.5°c 1019.1 hPa 90% 1.2mm
07/07:30am SSW 7-10 kts 15.4°c 1018.8 hPa 89% 1.2mm
07/07:21am SSW 7-10 kts 15.4°c 1018.8 hPa 88% 1.2mm
07/07:08am S 7-9 kts 15.6°c 1018.7 hPa 85% 0.8mm
07/07:00am S 9-11 kts 16.0°c 1018.8 hPa 81% 0.2mm
07/06:30am S 10-13 kts 16.7°c 1018.8 hPa 74% 0.0mm
07/06:00am SSW 8-9 kts 16.7°c 1018.7 hPa 75% 0.0mm
07/05:30am S 7-9 kts 16.3°c 1018.5 hPa 77% 0.0mm
07/05:00am S 6-9 kts 16.4°c 1018.5 hPa 73% 0.0mm
07/04:30am S 10-12 kts 16.5°c 1018.1 hPa 73% 0.0mm
07/04:00am S 8-11 kts 16.7°c 1018.2 hPa 72% 0.0mm
07/03:30am S 8-11 kts 16.8°c 1018.2 hPa 72% 0.0mm
07/03:00am S 7-10 kts 16.9°c 1018.3 hPa 72% 0.0mm
07/02:30am S 7-10 kts 16.7°c 1018.4 hPa 73% 0.0mm
07/02:00am S 7-9 kts 16.1°c 1018.5 hPa 75% 0.0mm
07/01:30am S 5-7 kts 16.6°c 1019.0 hPa 72% 0.0mm
07/01:00am S 7-8 kts 16.6°c 1019.1 hPa 73% 0.0mm
07/12:30am S 6-7 kts 15.9°c 1019.2 hPa 78% 0.0mm
07/12:00am S 1-3 kts 15.2°c 1019.3 hPa 80% 0.0mm
Time Wind Speed Temp Pressure Rel. Hum Rain
06/11:30pm S 4-5 kts 15.3°c 1019.4 hPa 82% 0.0mm
06/11:00pm S 1-4 kts 14.9°c 1019.5 hPa 85% 0.0mm
06/10:30pm SSW 4 kts 14.4°c 1019.4 hPa 87% 0.0mm
06/10:00pm CALM 0 kts 14.0°c 1019.3 hPa 89% 0.0mm
06/09:30pm CALM 0 kts 11.8°c 1019.3 hPa 85% 0.0mm
06/09:00pm CALM 0 kts 13.1°c 1018.9 hPa 85% 0.0mm
06/08:30pm SW 2-3 kts 13.9°c 1018.9 hPa 83% 0.0mm
06/08:17pm SW 3-4 kts 13.4°c 1018.8 hPa 79% 0.0mm
06/08:00pm CALM 0 kts 13.9°c 1018.9 hPa 80% 0.0mm
06/07:58pm CALM 0 kts 14.1°c 1018.9 hPa 80% 0.0mm
06/07:30pm SW 3-5 kts 14.5°c 1018.6 hPa 75% 0.0mm
06/07:00pm SW 6-7 kts 15.0°c 1018.2 hPa 75% 0.0mm
06/06:30pm SW 6-7 kts 15.4°c 1017.9 hPa 74% 0.0mm
06/06:00pm S 4-6 kts 16.4°c 1017.5 hPa 72% 0.0mm
06/05:30pm SSE 5 kts 17.1°c 1017.1 hPa 66% 0.0mm
06/05:00pm SSE 6-7 kts 18.3°c 1017.0 hPa 59% 0.0mm
06/04:30pm SE 7-10 kts 19.4°c 1016.7 hPa 54% 0.0mm
06/04:00pm SE 8-11 kts 19.9°c 1016.4 hPa 52% 0.0mm
06/03:30pm SE 9-12 kts 20.5°c 1016.4 hPa 49% 0.0mm
06/03:00pm ESE 9-12 kts 20.8°c 1016.2 hPa 43% 0.0mm
06/02:30pm ESE 9-12 kts 20.9°c 1016.1 hPa 43% 0.0mm
06/02:00pm ESE 10-13 kts 21.1°c 1016.0 hPa 46% 0.0mm
06/01:30pm ESE 10-14 kts 21.0°c 1016.1 hPa 45% 0.0mm
06/01:00pm ESE 11-15 kts 21.2°c 1016.1 hPa 48% 0.0mm
06/12:30pm ESE 11-14 kts 21.3°c 1016.4 hPa 51% 0.0mm
06/12:00pm E 9-13 kts 22.3°c 1016.9 hPa 47% 0.0mm
06/11:30am NE 7-10 kts 21.9°c 1017.2 hPa 51% 0.0mm
06/11:00am NE 7-9 kts 22.3°c 1017.4 hPa 48% 0.0mm
06/10:30am NE 6-7 kts 22.3°c 1017.7 hPa 43% 0.0mm
06/10:00am NNE 5-7 kts 22.0°c 1017.9 hPa 46% 0.0mm
06/09:30am W 3-7 kts 21.2°c 1018.1 hPa 53% 0.0mm
06/09:00am WSW 2-4 kts 18.7°c 1018.0 hPa 63% 0.0mm
06/08:30am SW 1-3 kts 15.4°c 1017.9 hPa 70% 0.0mm
06/08:00am CALM 0 kts 12.8°c 1017.7 hPa 81% 0.0mm
06/07:30am WSW 3-5 kts 10.6°c 1017.3 hPa 83% 0.0mm
06/07:00am WSW 2-4 kts 8.7°c 1016.9 hPa 88% 0.0mm
06/06:30am WSW 3-5 kts 8.4°c 1016.6 hPa 87% 0.0mm
06/06:00am WSW 5-6 kts 8.2°c 1016.3 hPa 88% 0.0mm
06/05:30am WSW 5-6 kts 8.6°c 1015.8 hPa 90% 0.0mm
06/05:00am WSW 5-7 kts 7.9°c 1015.5 hPa 89% 0.0mm
06/04:30am SW 2-3 kts 8.4°c 1015.0 hPa 90% 0.0mm
06/04:00am WSW 3-4 kts 8.6°c 1014.9 hPa 92% 0.0mm
06/03:30am SW 4-5 kts 8.1°c 1015.0 hPa 96% 0.0mm
06/03:00am SW 3-5 kts 7.3°c 1015.1 hPa 95% 0.0mm
06/02:30am CALM 0 kts 7.3°c 1014.9 hPa 94% 0.0mm
06/02:00am CALM 0 kts 7.8°c 1014.9 hPa 91% 0.0mm
06/01:53am CALM 0 kts 9.1°c 1014.9 hPa 94% 0.0mm
06/01:33am CALM 0-3 kts 9.3°c 1014.9 hPa 94% 0.0mm
06/01:30am SW 1-3 kts 9.6°c 1014.9 hPa 95% 0.0mm
06/01:00am SW 4-5 kts 9.5°c 1015.1 hPa 94% 0.0mm
06/12:30am SW 3-4 kts 9.2°c 1015.3 hPa 91% 0.0mm
06/12:00am SW 4-6 kts 10.7°c 1015.2 hPa 95% 0.0mm